Regional Weather Roundup
Issued by NWS

Home | Current Version | Previous Version | Text Only | Print | Product List | Glossary On
Versions: 1 2 3 4 5 6 7 8 9 10 11 12 13 14 15 16 17 18 19 20 21 22 23 24 25 26 27
000
ASUS46 KSEW 280710
RWRWA

WASHINGTON REGIONAL WEATHER ROUNDUP
NATIONAL WEATHER SERVICE SEATTLE WA
1200 AM PDT SAT MAY 28 2016

NOTE:"FAIR" INDICATES FEW OR NO CLOUDS BELOW 12,000 FEET WITH NO
SIGNIFICANT WEATHER AND/OR OBSTRUCTIONS TO VISIBILITY.

WAZ505-507>509-280800-
SEATTLE, TACOMA, EVERETT, AND VICINITY

CITY           SKY/WX    TMP DP  RH WIND       PRES   REMARKS
EVERETT        CLOUDY    49  44  83 E3        30.13S
BOEING FIELD   CLOUDY    54  45  71 S7        30.13S
RENTON         CLOUDY    55  43  63 S10       30.13S
SEATAC AIRPORT MOCLDY    52  42  69 SW10      30.14S
JBLM-MCCHORD   MOCLDY    51  42  72 SW12      30.15S
PUYALLUP       FAIR      50  43  76 CALM      30.15S
BREMERTON      CLOUDY    48  45  87 CALM      30.15S
JBLM-FT LEWIS  MOCLDY    48  42  80 SE7       30.14F
TACOMA NARROWS MOCLDY    51  43  74 SW9       30.15R
$$

WAZ001-503-506-510-514-515-280800-
NORTH INTERIOR

CITY           SKY/WX    TMP DP  RH WIND       PRES   REMARKS
BELLINGHAM     MOCLDY    52  43  71 S3        30.09S
FRIDAY HARBOR  CLOUDY    50  43  77 SW5       30.11S
EASTSOUND      MOCLDY    52  41  66 S5        30.08S
PORT ANGELES   MOCLDY    49  44  83 CALM      30.11F
EDIZ HOOK      CLOUDY    50  46  87 W6        30.11F
PORT TOWNSEND  CLOUDY    48  46  93 VRB3      30.12F
NAS WHIDBEY    CLOUDY    53  46  77 W12       30.15S
ARLINGTON      CLOUDY    48  41  76 NE3       30.15S
BURLINGTON     CLOUDY    50  46  87 CALM      30.12S
$$

WAZ020-022-039-040-504-511-512-280800-
SOUTHWEST INTERIOR

CITY           SKY/WX    TMP DP  RH WIND       PRES   REMARKS
SHELTON        MOCLDY    48  43  82 SW10      30.12S
OLYMPIA        CLOUDY    49  42  77 S6        30.15S
CHEHALIS       CLOUDY    50  45  81 CALM      30.17S
KELSO          CLOUDY    50  43  76 CALM      30.22S
VANCOUVER      PTCLDY    52  43  71 CALM      30.19S
SCAPPOOSE, OR  MOCLDY    45  42  89 CALM      30.18F
PORTLAND, OR   MOCLDY    53  43  68 N3        30.19S
$$

WAZ021-516-517-280800-
WASHINGTON COAST

CITY           SKY/WX    TMP DP  RH WIND       PRES   REMARKS
FORKS          LGT RAIN  49  48  97 CALM      30.12F
HOQUIAM        CLOUDY    52  50  93 CALM      30.16S
ASTORIA, OR    MOCLDY    50  46  86 S5        30.17F
$$

WAZ019-023-024-040-518-519-280800-
CASCADE MOUNTAINS AND COLUMBIA GORGE

CITY           SKY/WX    TMP DP  RH WIND       PRES   REMARKS
STAMPEDE PASS  MIX PCPN  35  34  96 VRB5      30.07S VSB 1/2
TROUTDALE, OR  CLOUDY    53  43  68 CALM      30.19S
THE DALLES, OR PTCLDY    55  38  52 W16       30.11S
$$

WAZ026-027-041>044-520-521-280800-
EAST SLOPES

CITY           SKY/WX    TMP DP  RH WIND       PRES   REMARKS
OMAK           PTCLDY    53  33  46 N10       29.97R
WENATCHEE      MOCLDY    53  33  46 NW12      30.00F
ELLENSBURG     MOCLDY    49  36  61 NW15G23   30.05S
YAKIMA         PTCLDY    54  35  48 NW3       30.05S
$$

WAZ028-034-035-280800-
COLUMBIA BASIN

CITY           SKY/WX    TMP DP  RH WIND       PRES   REMARKS
EPHRATA        PTCLDY    52  29  41 W13       29.98R
MOSES LAKE     CLEAR     52  32  46 W12       30.00S
PASCO          CLEAR     52  36  54 E6        30.06R
HERMISTON, OR  PTCLDY    53  40  61 SW13      30.06S
$$

WAZ036>038-280800-
NORTHEAST WASHINGTON

CITY           SKY/WX    TMP DP  RH WIND       PRES   REMARKS
SPOKANE GEIGER PTCLDY    48  32  53 S7        29.98S
SPOKANE FELTS  PTCLDY    50  38  63 VRB3      30.00R
FAIRCHILD AFB  PTCLDY    45  33  62 S7        29.98S
COEURDALENE,ID MOCLDY    50  36  57 SE10      29.97S
DEER PARK      PTCLDY    47  34  60 NE3       29.99R
$$

WAZ029>033-280800-
SOUTHEAST WASHINGTON

CITY           SKY/WX    TMP DP  RH WIND       PRES   REMARKS
PULLMAN        CLOUDY    47  36  65 CALM      30.04S
LEWISTON, ID   PTCLDY    50  39  66 SE5       30.03R
WALLA WALLA    CLOUDY    53  38  56 S12       30.07R
PENDLETON, OR  MOCLDY    51  37  58 W15       30.07R
$$




USA.gov is the U.S. government's official web portal to all federal, state and local government web resources and services.